FW0788 Weather Reports


Display with metric or nautical units.
time (UTC)temp
F
wind
direction
speed
MPH
gust
MPH
rain 1hr
in
rain 24hr
in
rain mn
in
humidity
%
barometer
mb
20210801032009 52 131 3.0 11.0 0.00 0.36 0.05 70 1004.0
20210801031531 52 124 1.0 9.0 0.00 0.36 0.05 71 1003.9
20210801031013 51 111 3.0 10.0 0.00 0.36 0.05 71 1004.0
20210801030512 51 81 2.0 11.0 0.00 0.36 0.05 72 1004.0
20210801030007 51 32 5.0 13.0 0.01 0.36 0.05 70 1003.9
20210801025506 51 116 7.0 13.0 0.01 0.36 0.05 71 1003.9
20210801025010 51 63 4.0 11.0 0.01 0.36 0.05 72 1003.9
20210801024512 51 38 6.0 14.0 0.01 0.36 0.05 72 1004.0
20210801024005 50 211 4.0 16.0 0.01 0.36 0.05 74 1004.0
20210801023504 50 94 6.0 16.0 0.02 0.36 0.05 74 1004.2
20210801023035 50 108 4.0 15.0 0.03 0.36 0.05 78 1004.1
20210801022505 49 63 5.0 19.0 0.03 0.36 0.05 78 1004.0
20210801022005 49 67 4.0 13.0 0.03 0.36 0.05 81 1004.3
20210801021507 49 22 4.0 12.0 0.03 0.36 0.05 83 1004.2
20210801021015 49 98 4.0 12.0 0.03 0.36 0.05 85 1004.2
20210801020504 49 98 2.0 11.0 0.03 0.36 0.05 86 1004.1
20210801020008 49 119 1.0 10.0 0.02 0.35 0.04 88 1004.3
20210801015504 48 123 1.0 12.0 0.02 0.36 0.04 87 1004.3
20210801015007 48 98 2.0 13.0 0.02 0.36 0.04 84 1004.2
20210801014504 49 136 5.0 18.0 0.02 0.36 0.04 81 1004.3
20210801014003 51 125 3.0 18.0 0.02 0.36 0.04 77 1004.3
20210801013501 53 174 4.0 9.0 0.00 0.34 0.02 75 1004.2
20210801013004 52 225 2.0 11.0 0.00 0.34 0.02 74 1004.0
20210801012600 52 215 5.0 14.0 0.00 0.34 0.02 74 1004.0
20210801012138 52 124 3.0 14.0 0.00 0.34 0.02 74 1004.0
20210801011736 52 108 3.0 13.0 0.00 0.34 0.02 75 1004.0
20210801011059 52 178 6.0 12.0 0.00 0.34 0.02 74 1004.1
20210801010603 52 84 4.0 11.0 0.00 0.34 0.02 74 1004.2
20210801010153 52 179 5.0 11.0 0.00 0.34 0.02 72 1004.1
20210801005603 52 62 3.0 12.0 0.00 0.34 0.02 73 1004.1
20210801005059 51 78 4.0 14.0 0.00 0.34 0.02 74 1004.1
20210801004819 51 192 5.0 14.0 0.00 0.34 0.02 74 1004.1
20210801004059 51 59 5.0 14.0 0.00 0.34 0.02 74 1004.2
20210801003551 51 104 4.0 18.0 0.00 0.34 0.02 75 1004.1
20210801003124 51 122 5.0 18.0 0.00 0.34 0.02 74 1004.1
20210801002548 51 70 4.0 15.0 0.00 0.34 0.02 77 1004.1
20210801002136 51 116 5.0 12.0 0.00 0.34 0.02 77 1003.9
20210801001634 50 105 5.0 12.0 0.00 0.34 0.02 77 1003.7
20210801001044 50 69 4.0 12.0 0.00 0.34 0.02 78 1003.7
20210801000542 50 119 3.0 12.0 0.00 0.34 0.02 79 1003.6
20210801000100 50 133 4.0 12.0 0.00 0.34 0.02 78 1003.7
20210731235102 50 67 3.0 13.0 0.00 0.34 0.02 79 1003.6
20210731234614 50 165 3.0 11.0 0.00 0.34 0.02 79 1003.5
20210731234038 50 83 4.0 12.0 0.00 0.34 0.02 79 1003.5
20210731233537 50 82 4.0 12.0 0.00 0.34 0.02 80 1003.6
20210731233043 49 59 3.0 10.0 0.00 0.34 0.02 80 1003.4
20210731232534 49 134 5.0 11.0 0.00 0.34 0.02 80 1003.4
20210731232045 49 128 4.0 11.0 0.00 0.34 0.02 80 1003.5
20210731231616 49 103 4.0 11.0 0.00 0.34 0.02 82 1003.3
20210731231107 48 110 4.0 10.0 0.00 0.34 0.02 82 1003.3
20210731230529 48 127 3.0 12.0 0.00 0.34 0.02 83 1003.2
20210731230056 48 169 4.0 12.0 0.00 0.34 0.02 83 1003.2
20210731225525 48 136 3.0 12.0 0.00 0.34 0.02 83 1003.0
20210731225030 48 113 3.0 12.0 0.00 0.34 0.02 84 1003.0
20210731224529 47 190 3.0 9.0 0.00 0.34 0.02 85 1003.1
20210731224025 47 107 3.0 9.0 0.00 0.34 0.02 87 1003.2
20210731223520 46 107 2.0 9.0 0.00 0.34 0.02 89 1003.2
20210731223032 46 129 0.0 7.0 0.00 0.34 0.02 89 1003.2
20210731222526 46 170 0.0 6.0 0.00 0.34 0.02 90 1003.2
20210731222027 45 80 1.0 6.0 0.00 0.34 0.02 91 1003.0
20210731221542 45 109 1.0 7.0 0.00 0.34 0.02 91 1003.0
20210731221040 45 128 0.0 4.0 0.00 0.34 0.02 91 1002.8
20210731220514 45 99 0.0 10.0 0.00 0.34 0.02 91 1002.6
20210731220014 45 124 1.0 7.0 0.00 0.34 0.02 91 1002.4
20210731215512 44 136 1.0 7.0 0.00 0.34 0.02 91 1002.4
20210731215042 44 138 0.0 3.0 0.00 0.34 0.02 91 1002.2
20210731214513 44 107 0.0 5.0 0.00 0.34 0.02 91 1002.3
20210731214037 44 118 0.0 6.0 0.00 0.34 0.02 91 1002.2
20210731213514 44 90 1.0 6.0 0.00 0.34 0.02 91 1002.1
20210731213025 44 120 0.0 6.0 0.00 0.34 0.02 91 1002.1
20210731212512 44 157 0.0 5.0 0.00 0.34 0.02 92 1002.0
20210731212008 44 108 1.0 5.0 0.00 0.34 0.02 92 1001.9
20210731211513 44 127 1.0 8.0 0.00 0.34 0.02 92 1001.8
20210731211006 44 83 2.0 8.0 0.01 0.34 0.02 93 1001.7
20210731210505 44 70 2.0 7.0 0.01 0.34 0.02 93 1001.7
20210731210005 44 115 1.0 8.0 0.01 0.34 0.02 93 1001.6
20210731205541 43 107 0.0 7.0 0.01 0.35 0.02 93 1001.6
20210731205007 43 74 0.0 3.0 0.01 0.35 0.02 94 1001.6
20210731204503 43 103 0.0 3.0 0.01 0.35 0.02 94 1001.5
20210731204002 43 105 0.0 3.0 0.01 0.35 0.02 94 1001.4
20210731203600 43 105 0.0 4.0 0.01 0.35 0.02 94 1001.3
20210731203256 43 135 1.0 3.0 0.01 0.35 0.02 94 1001.2
20210731202604 43 171 0.0 2.0 0.01 0.35 0.02 94 1001.1
20210731202058 43 171 0.0 2.0 0.01 0.35 0.02 94 1001.0
20210731201704 44 110 0.0 0.0 0.01 0.35 0.02 94 1001.0
20210731201103 44 108 0.0 4.0 0.00 0.35 0.01 94 1000.9
20210731200615 44 90 1.0 4.0 0.00 0.35 0.01 94 1000.9
20210731200231 44 103 0.0 0.0 0.00 0.35 0.01 94 1000.8
20210731195554 45 103 0.0 0.0 0.00 0.41 0.01 94 1000.9
20210731195100 45 103 0.0 6.0 0.00 0.41 0.01 94 1000.8
20210731194704 45 103 0.0 6.0 0.00 0.41 0.01 95 1000.6
20210731194102 45 86 0.0 4.0 0.00 0.41 0.01 95 1000.5
20210731193647 45 97 1.0 4.0 0.00 0.41 0.01 95 1000.6
20210731193155 45 129 0.0 6.0 0.00 0.41 0.01 95 1000.7
20210731192600 45 107 3.0 6.0 0.00 0.41 0.01 95 1000.8
20210731192051 45 92 2.0 6.0 0.00 0.41 0.01 95 1000.8
20210731191712 45 135 1.0 6.0 0.00 0.41 0.01 95 1000.8
20210731191104 45 67 1.0 4.0 0.00 0.41 0.01 95 1000.6
20210731190558 44 119 0.0 0.0 0.00 0.41 0.01 95 1000.6
20210731190152 45 119 0.0 0.0 0.00 0.41 0.01 95 1000.6
20210731185605 45 119 0.0 0.0 0.00 0.42 0.01 95 1000.5
20210731185048 45 119 0.0 0.0 0.00 0.42 0.01 95 1000.5
20210731184633 45 119 0.0 0.0 0.00 0.42 0.01 95 1000.4
20210731184048 45 119 0.0 0.0 0.00 0.42 0.01 95 1000.5
20210731183553 45 119 0.0 2.0 0.00 0.42 0.01 95 1000.5
20210731183149 45 119 0.0 2.0 0.00 0.42 0.01 95 1000.5
20210731182600 44 119 0.0 1.0 0.00 0.42 0.01 95 1000.5
20210731182107 44 119 0.0 1.0 0.00 0.42 0.01 95 1000.4
20210731181637 44 119 0.0 1.0 0.00 0.42 0.01 95 1000.3
20210731181049 44 119 0.0 3.0 0.00 0.42 0.01 95 1000.2
20210731180613 44 119 0.0 3.0 0.00 0.42 0.01 95 1000.0
20210731180109 44 122 0.0 0.0 0.00 0.42 0.01 95 999.9
20210731180018 45 122 0.0 0.0 0.00 0.42 0.01 95 999.9
20210731175602 45 122 0.0 0.0 0.00 0.44 0.01 94 999.9
20210731175101 45 122 0.0 0.0 0.00 0.44 0.01 94 999.7
20210731174652 45 122 0.0 0.0 0.00 0.44 0.01 94 999.6
20210731174043 45 122 0.0 0.0 0.00 0.44 0.01 94 999.7
20210731173546 46 122 0.0 0.0 0.00 0.44 0.01 94 999.7
20210731173242 46 122 0.0 0.0 0.00 0.44 0.01 95 999.4
20210731172548 46 121 0.0 0.0 0.00 0.44 0.01 94 999.6
20210731172039 46 121 0.0 0.0 0.00 0.44 0.01 95 999.6
20210731171636 46 121 0.0 0.0 0.01 0.44 0.01 95 999.8
20210731171052 47 121 0.0 0.0 0.01 0.44 0.01 95 999.8
20210731170548 47 121 0.0 0.0 0.01 0.44 0.01 95 999.8
20210731170039 47 121 0.0 0.0 0.01 0.44 0.01 95 999.8
20210731165536 47 121 0.0 2.0 0.01 0.46 0.01 95 999.8
20210731165035 47 121 0.0 4.0 0.01 0.46 0.01 95 999.9
20210731164634 48 117 1.0 5.0 0.01 0.46 0.01 95 1000.0
20210731164034 48 173 0.0 7.0 0.01 0.46 0.01 95 1000.1
20210731163535 48 19 1.0 6.0 0.01 0.46 0.01 95 1000.2
20210731163046 48 158 0.0 8.0 0.01 0.46 0.01 96 1000.2
20210731162533 48 101 2.0 8.0 0.01 0.46 0.01 96 1000.2
20210731162036 48 241 2.0 5.0 0.01 0.46 0.01 96 1000.3
20210731161536 48 211 0.0 5.0 0.00 0.45 0.00 95 1000.3
20210731161105 47 223 0.0 4.0 0.00 0.45 0.00 96 1000.0
20210731160533 47 232 0.0 3.0 0.00 0.45 0.00 96 1000.1
20210731160033 47 130 0.0 4.0 0.00 0.45 0.00 95 1000.0
20210731155526 47 241 0.0 4.0 0.00 0.49 0.00 95 1000.0
20210731155025 46 247 0.0 3.0 0.00 0.49 0.00 95 1000.2
20210731154557 46 236 0.0 2.0 0.00 0.49 0.00 95 1000.2
20210731154023 46 227 0.0 0.0 0.00 0.49 0.00 95 1000.2
20210731153525 46 227 0.0 0.0 0.00 0.49 0.00 95 1000.3
20210731153029 46 227 0.0 0.0 0.00 0.49 0.00 95 1000.1
20210731152536 46 227 0.0 0.0 0.00 0.49 0.00 95 1000.1
20210731152032 46 227 0.0 0.0 0.00 0.49 0.00 95 1000.2
20210731151532 46 227 0.0 0.0 0.00 0.49 0.00 95 1000.3
20210731151026 46 227 0.0 0.0 0.00 0.49 0.00 95 1000.3
20210731150519 46 227 0.0 0.0 0.00 0.49 0.00 95 1000.3
20210731150038 47 227 0.0 0.0 0.00 0.49 0.00 95 1000.4
20210731145521 47 227 0.0 0.0 0.00 0.50 0.00 95 1000.4
20210731145018 47 227 0.0 0.0 0.00 0.50 0.00 95 1000.5
20210731144612 47 227 0.0 0.0 0.00 0.50 0.00 95 1000.4
20210731144016 47 227 0.0 0.0 0.00 0.50 0.00 95 1000.7
20210731143518 47 227 0.0 0.0 0.00 0.50 0.00 95 1000.8
20210731143120 47 227 0.0 0.0 0.00 0.50 0.00 95 1000.6
20210731142521 47 227 0.0 0.0 0.00 0.50 0.00 94 1000.5
20210731142014 47 227 0.0 0.0 0.00 0.50 0.00 94 1000.3
20210731141538 47 227 0.0 0.0 0.00 0.50 0.00 95 1000.3
20210731141032 47 227 0.0 0.0 0.00 0.50 0.00 95 1000.3
20210731140518 47 227 0.0 0.0 0.00 0.50 0.00 94 1000.2
20210731140031 47 227 0.0 0.0 0.00 0.50 0.00 94 1000.3
20210731135534 47 227 0.0 0.0 0.00 0.50 0.50 94 1000.2
20210731135020 47 227 0.0 0.0 0.00 0.50 0.50 94 1000.4
20210731134520 47 227 0.0 0.0 0.00 0.50 0.50 94 1000.2
20210731134009 47 227 0.0 0.0 0.00 0.50 0.50 94 1000.2
20210731133511 47 227 0.0 0.0 0.00 0.50 0.50 94 1000.4
20210731133017 47 227 0.0 0.0 0.00 0.50 0.50 94 1000.4
20210731132515 47 227 0.0 0.0 0.01 0.50 0.50 94 1000.0
20210731132015 48 227 0.0 0.0 0.01 0.50 0.50 94 999.9
20210731131509 48 227 0.0 0.0 0.01 0.50 0.50 94 999.7
20210731131013 48 227 0.0 0.0 0.02 0.50 0.50 94 999.6
20210731130508 48 227 0.0 0.0 0.02 0.50 0.50 94 999.4
20210731130034 48 227 0.0 0.0 0.02 0.50 0.50 94 999.9
20210731125511 48 227 0.0 0.0 0.03 0.50 0.50 94 999.8
20210731124509 48 227 0.0 3.0 0.06 0.50 0.50 93 1000.4
20210731124007 48 227 0.0 4.0 0.06 0.50 0.50 93 1000.3
20210731123510 48 265 1.0 6.0 0.07 0.50 0.50 94 1000.8
20210731123039 48 117 2.0 6.0 0.08 0.50 0.50 94 1001.1
20210731122510 48 231 0.0 6.0 0.08 0.50 0.49 94 1001.5
20210731122007 48 113 2.0 7.0 0.08 0.50 0.49 94 1001.3
20210731121509 48 103 1.0 11.0 0.09 0.50 0.49 94 1001.3
20210731121006 48 99 5.0 11.0 0.08 0.49 0.48 94 1001.4
20210731120505 48 105 1.0 14.0 0.08 0.48 0.47 94 1001.5
20210731120039 48 104 3.0 14.0 0.08 0.48 0.47 94 1001.7
20210731115505 48 167 2.0 9.0 0.07 0.48 0.46 94 1001.5
20210731115004 48 101 1.0 6.0 0.06 0.46 0.45 94 1001.4
20210731114507 48 74 1.0 6.0 0.06 0.46 0.44 94 1001.5
20210731114004 48 123 0.0 4.0 0.05 0.45 0.43 94 1001.4
20210731113503 48 130 0.0 4.0 0.05 0.44 0.43 94 1001.4
20210731113006 48 161 0.0 3.0 0.04 0.43 0.42 94 1001.4
20210731112508 48 174 0.0 3.0 0.03 0.43 0.41 94 1001.3
20210731112010 48 126 0.0 4.0 0.03 0.42 0.40 94 1001.3
20210731111508 49 183 0.0 6.0 0.04 0.42 0.40 94 1001.2
20210731111011 49 248 1.0 6.0 0.04 0.42 0.40 94 1001.0
20210731110502 49 134 0.0 5.0 0.05 0.41 0.39 93 1001.0
20210731110002 49 130 2.0 5.0 0.06 0.41 0.39 94 1000.9
20210731105503 49 174 0.0 6.0 0.06 0.41 0.39 94 1000.7
20210731105006 49 171 0.0 6.0 0.06 0.40 0.39 94 1000.7
20210731104505 49 248 0.0 7.0 0.07 0.40 0.39 94 1000.7
20210731104005 49 111 1.0 4.0 0.07 0.39 0.38 94 1000.7
20210731103509 49 129 0.0 10.0 0.07 0.39 0.38 94 1000.7
20210731103002 49 119 2.0 10.0 0.08 0.39 0.38 94 1000.6
20210731102501 50 186 0.0 4.0 0.08 0.39 0.37 94 1000.6
20210731102002 50 136 1.0 9.0 0.12 0.39 0.37 94 1000.6
20210731101501 50 140 2.0 9.0 0.12 0.38 0.36 94 1000.5
20210731101100 50 121 1.0 8.0 0.13 0.38 0.36 94 1000.5
20210731101002 50 155 1.0 8.0 0.12 0.37 0.35 94 1000.5
20210731100610 50 140 3.0 8.0 0.11 0.36 0.35 94 1000.5
20210731100147 50 127 1.0 7.0 0.10 0.35 0.34 94 1000.4
20210731095608 50 105 3.0 10.0 0.09 0.35 0.33 94 1000.4
20210731095100 50 168 5.0 9.0 0.09 0.34 0.32 94 1000.4
20210731094642 50 42 2.0 6.0 0.09 0.33 0.31 93 1000.3
20210731094059 50 174 0.0 6.0 0.08 0.32 0.31 93 1000.2
20210731093558 51 136 1.0 11.0 0.09 0.32 0.31 93 1000.0
20210731093118 51 184 3.0 12.0 0.08 0.31 0.30 94 1000.0
20210731092558 52 146 2.0 12.0 0.07 0.31 0.28 94 999.8
20210731092100 52 225 0.0 0.0 0.03 0.27 0.25 94 999.4
20210731091616 52 225 0.0 0.0 0.02 0.26 0.24 94 999.3
20210731091105 52 225 0.0 0.0 0.02 0.25 0.24 94 999.4
20210731090556 52 225 0.0 0.0 0.02 0.25 0.24 94 999.4
20210731090120 52 225 0.0 0.0 0.02 0.25 0.24 94 999.4
20210731085556 52 224 0.0 0.0 0.02 0.26 0.24 94 999.4
20210731085103 52 224 0.0 0.0 0.03 0.26 0.24 93 999.5
20210731084640 52 224 0.0 0.0 0.02 0.25 0.23 93 999.6
20210731084055 52 225 0.0 0.0 0.03 0.25 0.23 93 999.5
20210731083622 52 225 0.0 5.0 0.02 0.24 0.22 93 999.5
20210731083211 52 214 1.0 5.0 0.03 0.24 0.22 93 999.7
20210731082555 52 257 0.0 3.0 0.03 0.24 0.22 93 999.9
20210731082106 52 239 0.0 2.0 0.03 0.24 0.22 93 999.9
20210731081642 52 239 0.0 2.0 0.03 0.24 0.22 93 999.8
20210731081054 52 157 0.0 5.0 0.04 0.24 0.22 93 1000.0
20210731080555 53 148 0.0 5.0 0.04 0.24 0.22 92 1000.0
20210731080232 53 136 0.0 6.0 0.03 0.24 0.21 92 999.7
20210731075553 53 259 0.0 6.0 0.03 0.25 0.21 92 999.6
20210731075055 53 157 2.0 6.0 0.02 0.24 0.20 92 999.9
20210731074618 53 129 2.0 6.0 0.02 0.24 0.20 92 999.9
20210731074123 53 93 0.0 6.0 0.02 0.24 0.20 92 999.9
20210731073554 53 223 1.0 7.0 0.01 0.23 0.19 91 999.9
20210731073252 53 275 1.0 4.0 0.01 0.23 0.19 91 1000.0
20210731072552 53 254 1.0 4.0 0.01 0.23 0.19 91 999.9
20210731072051 53 156 0.0 5.0 0.01 0.23 0.19 90 999.8
20210731071711 54 262 0.0 4.0 0.01 0.23 0.19 90 999.9
20210731071100 54 148 0.0 3.0 0.00 0.22 0.18 89 999.9
20210731070550 54 217 1.0 7.0 0.00 0.22 0.18 89 999.8
20210731070209 54 165 1.0 7.0 0.00 0.22 0.18 88 999.9
20210731065550 54 177 0.0 6.0 0.00 0.23 0.18 88 999.8
20210731065049 54 190 1.0 8.0 0.00 0.23 0.18 88 1000.0
20210731064624 54 233 3.0 8.0 0.00 0.23 0.18 88 1000.0
20210731064057 54 238 1.0 7.0 0.00 0.23 0.18 88 1000.0
20210731063550 54 161 1.0 7.0 0.00 0.23 0.18 88 1000.0
20210731063123 54 206 1.0 7.0 0.00 0.23 0.18 88 999.9
20210731062548 54 229 3.0 6.0 0.00 0.23 0.18 87 999.9
20210731062100 54 110 2.0 5.0 0.00 0.23 0.18 87 999.9
20210731061559 54 163 2.0 7.0 0.00 0.23 0.18 87 999.9
20210731061052 54 259 2.0 6.0 0.00 0.23 0.18 87 999.9
20210731060638 54 236 2.0 7.0 0.00 0.23 0.18 87 999.8
20210731060130 55 172 2.0 8.0 0.00 0.23 0.18 87 999.8
20210731055546 55 135 2.0 8.0 0.00 0.23 0.18 87 999.7
20210731055050 55 180 2.0 7.0 0.00 0.23 0.18 86 999.6
20210731054616 55 315 2.0 8.0 0.00 0.23 0.18 86 999.4
20210731054046 55 261 2.0 7.0 0.00 0.23 0.18 86 999.5
20210731053547 55 248 2.0 6.0 0.00 0.23 0.18 86 999.4
20210731053136 55 212 2.0 6.0 0.00 0.23 0.18 86 999.5
20210731052557 55 236 1.0 5.0 0.00 0.23 0.18 86 999.5
20210731052057 55 170 1.0 7.0 0.00 0.23 0.18 85 999.5
20210731051628 55 213 2.0 7.0 0.00 0.23 0.18 85 999.4
20210731051100 55 136 1.0 7.0 0.00 0.23 0.18 86 999.4
20210731050544 55 244 1.0 8.0 0.00 0.23 0.18 85 999.4
20210731050106 55 192 1.0 7.0 0.00 0.23 0.18 85 999.4
20210731045545 55 163 2.0 7.0 0.00 0.23 0.18 85 999.4
20210731045112 55 189 2.0 7.0 0.00 0.23 0.18 84 999.4
20210731044043 56 259 4.0 12.0 0.00 0.23 0.18 84 999.7
20210731043543 56 79 2.0 7.0 0.00 0.23 0.18 85 999.7
20210731043115 55 247 3.0 8.0 0.00 0.23 0.18 85 999.7
20210731042547 55 109 1.0 11.0 0.00 0.23 0.18 85 999.7
20210731042050 55 90 4.0 15.0 0.00 0.23 0.18 84 999.8
20210731041814 55 204 5.0 15.0 0.00 0.23 0.18 84 999.7
20210731041043 55 262 2.0 10.0 0.00 0.23 0.18 84 999.6
20210731040546 56 76 2.0 10.0 0.00 0.23 0.18 84 999.5
20210731040151 56 280 3.0 6.0 0.00 0.23 0.18 84 999.7
20210731035541 56 228 2.0 9.0 0.00 0.23 0.18 84 999.6
20210731035041 56 171 2.0 9.0 0.00 0.23 0.18 84 999.6
20210731034622 56 187 4.0 9.0 0.00 0.23 0.18 84 999.5
20210731034049 56 170 2.0 9.0 0.00 0.23 0.18 84 999.6
20210731033540 56 167 4.0 18.0 0.00 0.23 0.18 84 999.5
20210731033138 56 132 5.0 18.0 0.00 0.23 0.18 83 999.7
20210731032539 56 128 4.0 11.0 0.00 0.23 0.18 83 999.8